Back to catalog

CZ-3B R/B

AliveHEO
NORAD 63362·ROCKET BODY·🇨🇳 China

Launched Mar 26, 2025 from Xichang Satellite Launch Center

Loading…

Next Passes (next 24 hours)

TLE

FreshSource: Space-Track

Epoch: Sep 12, 2026, 23:31 UTC

1 63362U 25062B   26255.97998818  .00069204  22588-6  72766-3 0  9997
2 63362  26.8388 157.3157 6666866 256.6246  26.3206  3.16294637 15175

Track CZ-3B R/B in real time with AllMySat

Download on the App Store